SCP
0 1 1 1 1 1 0 0 0 0 0 0 0 0 0 0 0 0 0 0 0 0 0 0 0 0 0 0 0 0 0 0 0 0 0 0 0 0 0 0 0 0 0
1 1 1 1 1 1 0 0 0 0 0 0 0 0 0 0 0 0 0 0 0 0 0 0 0 0 0 0 0 0 0 0 0 0 0 0 0 0 0 0 0 0 0
1 1 1 1 1 1 0 0 0 0 0 0 0 0 0 0 0 0 0 0 0 0 0 0 0 0 0 0 0 0 0 0 0 0 0 0 0 0 0 0 0 0 0
1 1 1 1 1 1 0 0 0 0 0 0 0 0 0 0 0 0 0 0 0 0 0 0 0 0 0 0 0 0 0 0 0 0 0 -0 0 0 0 0 0 0 0
1 1 1 1 1 1 0 0 0 0 0 0 0 0 0 0 0 0 0 0 0 0 0 0 0 0 0 0 0 0 0 0 0 0 -0 -0 0 0 0 0 0 0 0
1 1 1 1 1 1 0 0 0 0 0 0 0 0 0 0 0 0 0 0 0 0 0 0 0 0 0 0 0 0 0 0 0 -0 -0 0 0 0 0 0 0 0 0
1 1 1 1 1 1 0 0 0 0 0 0 0 0 0 0 0 0 0 0 0 0 0 0 0 0 0 0 0 0 0 0 0 -0 0 0 0 0 0 0 0 0 0
1 1 1 1 1 1 0 0 0 0 0 0 0 0 0 0 0 0 0 0 0 0 0 0 0 0 0 0 0 0 0 0 0 -0 0 0 0 0 0 0 0 0 0
1 1 1 1 1 1 0 0 0 0 0 0 0 0 0 0 0 0 0 0 0 0 0 0 0 0 0 0 0 0 0 0 0 0 0 0 0 0 0 0 0 0 0
1 1 1 1 1 0 0 0 0 0 0 0 0 0 0 0 0 0 0 0 0 0 0 0 0 0 0 0 0 0 0 0 0 0 0 0 0 0 0 0 0 0 0
1 1 1 1 1 0 0 0 0 0 0 0 0 0 0 0 0 0 0 0 0 0 0 0 0 0 0 0 0 0 0 0 0 0 0 0 0 0 0 0 0 0 0
1 1 1 1 1 0 0 0 0 0 0 0 0 0 0 0 0 0 0 0 0 0 0 0 0 0 0 0 0 0 0 0 0 0 0 0 0 0 0 0 0 0 0
1 1 1 1 1 0 0 0 0 0 0 0 0 0 0 0 0 0 0 0 0 0 0 0 0 0 0 0 0 0 0 0 0 0 0 0 0 0 0 0 0 0 0
1 1 1 1 1 1 0 0 0 0 0 0 0 0 0 0 0 0 0 0 0 0 0 0 0 0 0 0 0 0 0 0 0 0 0 0 0 0 0 0 0 0 0
1 1 1 1 1 1 0 0 0 0 0 0 0 0 0 0 0 0 0 0 0 0 0 0 0 0 0 0 0 0 0 0 0 0 0 0 0 0 0 0 0 0 0
1 1 1 1 1 1 0 0 0 0 0 0 0 0 0 0 0 0 0 0 0 0 0 0 0 0 0 0 0 0 0 0 0 0 0 0 0 0 0 0 0 0 0
1 1 1 1 1 1 1 0 0 0 0 0 0 0 0 0 0 0 0 0 0 0 0 0 0 0 0 0 0 0 0 0 0 0 0 0 0 0 0 0 0 0 0
1 1 1 1 1 1 1 0 0 0 0 0 0 0 0 0 0 0 0 0 0 0 0 0 0 0 0 0 0 0 0 0 0 0 0 0 0 0 0 0 0 0 0
1 1 1 1 1 1 1 1 0 0 0 0 0 0 0 0 0 0 0 0 0 0 0 0 0 0 0 0 0 0 0 0 0 0 0 0 0 0 0 0 0 0 0
1 1 1 1 1 1 1 1 1 0 0 0 0 0 0 0 0 0 0 0 0 0 0 0 0 0 0 0 0 0 0 0 0 0 0 0 0 0 0 0 0 0 0
1 1 1 1 1 1 1 1 1 0 0 0 0 0 0 0 0 0 0 0 0 0 0 0 0 0 0 0 0 0 0 0 0 0 0 0 0 0 0 0 0 0 0
1 1 1 1 1 1 1 1 1 1 0 0 0 0 0 0 0 0 0 0 0 0 0 0 0 0 0 0 0 0 0 0 0 0 0 0 0 0 0 0 0 0 0
1 1 1 1 1 1 1 1 1 1 1 0 0 0 0 0 0 0 0 0 0 0 0 0 0 0 0 0 0 0 0 0 0 0 0 0 0 0 0 0 0 0 0
0 0 1 1 1 1 1 1 1 1 1 1 0 0 0 0 0 0 0 0 0 0 0 0 0 0 0 0 0 0 0 0 0 0 0 0 0 0 0 0 0 0 0
0 0 1 1 1 1 1 1 1 1 1 1 1 0 0 0 0 0 0 0 0 0 0 0 0 0 0 0 0 0 0 0 0 0 0 0 0 0 0 0 0 0 0
0 0 0 1 1 1 1 1 1 1 1 1 1 0 0 0 0 0 0 0 0 0 0 0 0 0 0 0 0 0 0 0 0 0 0 0 0 0 0 0 0 0 0
Wind_Speed
10 12 20 20 20 19 18 18 17 16 16 15 15 15 16 16 16 16 16 17 16 17 18 18 18 18 19 19 19 18 18 18 18 17 16 15 16 16 16 15 14 10 17
13 15 20 20 20 19 18 18 17 16 15 15 15 15 15 16 16 16 16 17 17 18 18 18 18 18 18 18 17 17 17 17 16 16 13 11 13 15 16 15 14 11 17
17 16 18 20 19 19 18 18 17 16 15 15 15 15 15 16 16 16 17 17 17 17 18 18 17 17 16 16 15 14 14 15 15 14 11 6 9 15 16 15 15 16 16
17 15 16 20 20 19 19 18 17 16 16 15 15 15 16 16 17 17 17 17 17 17 17 17 16 15 15 14 13 14 14 14 13 11 6 5 6 13 14 14 14 15 15
15 13 16 20 20 19 19 18 17 16 16 15 16 16 16 16 17 17 17 17 17 16 16 16 15 14 13 13 13 14 15 15 13 10 5 5 5 12 14 14 14 14 14
14 12 16 20 20 19 18 18 17 17 16 16 16 16 16 17 17 17 17 17 16 15 15 15 14 13 12 12 13 14 14 14 10 6 5 5 4 11 13 13 13 13 13
14 13 16 19 20 19 19 18 17 17 17 16 16 16 16 17 17 17 17 16 15 15 14 14 12 11 11 12 13 13 13 12 7 5 4 4 6 12 12 12 12 12 12
15 13 14 18 18 18 18 17 17 16 16 16 16 16 16 16 16 16 16 15 15 14 13 12 11 10 10 11 11 11 11 9 7 6 4 3 8 11 11 11 10 10 11
14 12 11 12 14 16 16 16 16 15 15 16 16 16 15 14 15 15 14 14 14 13 12 11 10 9 8 9 9 9 9 8 4 3 4 3 7 9 9 9 9 9 9
12 11 10 10 10 10 10 14 14 14 14 14 14 13 12 12 12 13 11 12 12 12 11 9 8 7 6 6 6 7 7 6 3 3 2 3 7 8 8 8 7 7 7
13 11 11 10 10 9 9 12 12 12 13 13 12 13 11 6 6 7 9 10 11 10 9 8 7 5 4 3 4 4 4 2 3 2 2 5 8 7 7 6 6 6 6
16 13 11 11 10 9 9 7 6 7 8 7 7 8 5 5 5 6 9 9 9 9 8 7 5 3 2 1 1 2 1 2 1 2 2 7 8 7 6 6 5 5 5
16 14 12 11 10 9 6 6 4 4 5 6 7 7 5 4 4 4 3 4 5 5 3 3 2 1 1 1 0 0 1 2 2 2 3 7 8 7 6 6 6 5 4
15 14 13 12 11 9 8 7 6 5 5 5 6 7 6 4 4 4 3 3 3 2 3 2 1 2 2 2 2 2 2 2 2 2 3 8 8 8 7 7 6 6 5
14 15 14 13 12 10 9 7 7 6 6 6 6 7 7 6 5 5 3 3 4 3 3 3 3 3 3 3 3 3 3 3 4 3 3 8 9 9 9 8 8 7 7
12 13 13 14 12 11 9 8 7 7 6 6 6 7 8 6 6 6 5 4 4 4 4 4 4 3 3 3 3 3 3 3 4 4 4 5 9 10 10 10 9 9 8
11 11 13 14 13 12 10 9 7 6 7 6 6 8 8 7 7 6 5 5 4 4 4 3 3 2 2 2 3 3 2 3 3 4 4 4 5 9 11 12 11 10 9
9 10 11 12 13 12 10 9 6 6 7 6 6 7 8 8 8 6 5 5 5 4 3 3 3 2 2 2 2 2 2 2 4 4 4 4 4 4 7 11 11 10 10
9 10 10 10 12 11 9 7 7 6 7 6 6 6 7 8 8 6 5 5 5 4 3 3 2 2 2 2 2 2 2 3 4 4 4 5 5 5 4 6 9 9 9
8 8 10 10 10 9 7 5 4 5 5 5 6 6 7 6 7 6 4 5 5 4 3 3 3 2 2 2 2 2 3 4 3 4 5 4 4 5 4 4 4 5 8
7 8 9 10 10 9 6 6 5 5 4 4 4 6 7 7 7 6 5 5 4 4 4 4 3 3 2 1 0 2 3 4 4 4 3 3 3 3 3 4 3 2 2
8 8 9 10 10 9 7 6 4 5 3 4 3 4 6 7 7 6 6 5 5 4 4 4 3 2 2 2 2 1 3 4 3 2 2 2 2 1 2 2 2 2 2
8 9 9 10 9 9 8 5 4 3 2 2 4 4 4 6 6 6 6 5 5 5 5 5 5 5 3 3 3 3 3 4 3 2 1 1 1 1 1 0 1 1 1
7 7 8 8 8 8 8 8 9 7 6 6 5 4 4 5 5 5 6 5 5 4 4 4 4 3 4 3 3 3 3 3 2 2 2 1 1 0 1 0 0 0 1
5 5 5 6 7 7 8 9 8 6 5 4 4 5 5 4 5 5 5 5 5 4 4 4 4 4 4 4 3 2 3 3 4 3 4 2 1 1 0 1 1 0 0
3 4 5 5 5 5 7 8 8 8 7 6 5 5 4 3 3 4 4 4 4 4 4 4 4 4 4 4 3 3 3 3 3 4 5 3 3 2 1 0 0 0 0
Wind_Direction
155 157 150 146 141 136 132 128 124 120 116 114 113 113 111 111 112 112 111 112 111 108 106 103 101 101 99 96 95 93 89 85 82 79 75 74 77 78 76 72 68 66 73
147 152 148 146 142 138 134 130 126 123 121 118 117 117 115 114 114 115 116 115 112 109 106 105 103 102 100 99 98 96 93 89 86 80 72 70 75 78 77 74 72 72 72
145 148 147 145 142 139 136 132 128 126 124 122 119 119 118 116 115 114 115 114 112 109 108 106 105 103 101 100 99 99 99 93 88 81 72 64 75 79 78 75 73 72 72
144 146 147 145 142 140 138 135 132 129 127 123 121 119 117 118 117 115 113 112 111 110 108 106 106 104 101 97 96 98 100 98 92 83 67 56 68 80 79 77 74 73 73
142 144 147 145 144 142 140 138 135 131 128 125 122 119 118 118 117 115 113 111 110 109 109 109 108 105 98 93 95 97 99 96 93 83 70 60 63 80 79 77 76 74 74
138 142 147 145 145 144 142 140 137 134 132 129 125 122 121 119 116 115 114 112 112 112 112 112 110 104 95 91 95 97 99 98 91 79 71 66 70 85 84 81 79 78 76
139 143 148 146 146 146 144 142 140 137 136 134 130 127 124 122 120 119 118 118 117 116 115 114 111 104 95 93 96 98 100 100 95 85 78 72 85 90 88 85 83 81 79
142 145 149 147 147 147 146 144 142 140 139 138 135 132 129 127 126 125 124 123 122 121 120 118 115 107 97 95 97 99 102 104 104 96 87 83 97 94 91 89 87 85 83
142 145 148 148 148 147 146 145 144 142 141 140 138 135 131 131 131 130 129 128 127 125 124 123 122 114 103 97 96 94 94 100 108 111 106 101 108 103 99 96 93 90 87
145 147 148 148 147 146 146 146 144 143 141 140 137 134 132 132 133 131 129 130 129 130 130 131 130 122 107 96 93 95 97 102 111 117 121 131 123 115 110 106 102 99 96
154 154 153 151 149 148 149 150 145 143 141 138 138 137 133 128 127 129 134 134 136 138 141 142 141 131 108 84 87 94 93 106 128 140 158 151 142 132 127 122 118 115 112
164 163 160 157 154 153 156 148 145 144 143 141 143 141 135 134 137 139 141 143 143 146 150 155 156 143 106 58 49 68 98 133 160 176 189 174 161 153 148 146 143 140 138
166 166 166 162 159 158 151 152 148 145 148 148 152 150 144 139 139 138 140 143 143 147 150 159 153 168 193 215 243 207 187 179 188 198 195 187 180 175 172 173 174 173 171
167 169 168 166 164 162 156 160 158 157 158 161 166 160 154 152 152 156 156 158 159 160 166 172 184 218 240 246 237 227 218 198 196 198 206 198 197 195 195 195 197 199 200
171 171 171 169 168 165 161 166 167 169 170 170 171 173 168 165 167 166 170 173 177 176 179 185 198 217 238 246 236 217 210 203 201 197 208 209 210 212 213 213 213 215 218
172 173 172 172 171 167 168 172 172 175 173 171 175 179 175 171 171 172 175 181 187 189 190 191 201 214 222 218 227 219 212 209 212 206 212 217 220 221 222 224 225 226 228
171 171 173 173 172 171 172 176 174 176 174 175 177 179 177 174 173 175 176 184 193 193 193 194 206 206 216 215 224 226 219 221 222 223 220 218 224 228 228 231 231 231 233
170 173 175 175 173 175 174 176 172 174 174 176 174 174 176 174 173 172 176 187 189 184 183 187 190 189 206 207 219 235 237 239 238 233 226 221 219 225 231 231 233 235 236
174 178 178 176 174 176 171 171 170 171 175 174 170 172 178 176 172 170 176 183 177 175 180 185 184 180 197 217 231 243 247 243 244 240 235 228 222 219 219 228 230 233 238
174 178 181 176 177 173 166 161 159 164 174 173 172 175 176 178 175 172 174 179 172 171 183 186 189 188 193 206 237 257 256 252 250 244 240 234 224 221 217 217 222 233 236
173 175 184 178 177 170 165 165 166 176 177 178 179 177 176 176 177 176 176 177 175 180 188 185 179 194 208 172 185 299 293 270 258 254 245 237 234 225 211 214 211 212 229
180 178 183 184 180 174 173 172 167 159 170 176 173 179 180 178 177 176 175 180 179 176 182 185 175 176 200 172 167 220 305 317 303 272 252 228 229 213 206 206 195 196 200
186 183 184 186 184 178 170 153 138 122 118 158 177 186 190 180 175 171 175 177 183 182 190 192 184 183 201 210 188 180 205 249 295 310 308 264 228 206 228 212 196 193 190
194 186 179 179 181 178 169 168 168 171 180 191 186 183 182 178 175 175 175 179 185 189 193 196 193 193 189 210 219 219 212 200 224 288 308 326 343 264 258 234 207 236 204
185 179 178 172 176 176 174 177 178 179 181 170 165 171 178 179 179 178 176 178 184 189 195 192 188 197 199 205 209 213 228 230 223 235 264 270 297 272 226 214 215 232 240
178 169 163 161 175 178 177 177 178 179 171 162 171 179 181 176 175 179 178 183 189 191 195 196 195 199 207 210 213 211 211 218 218 221 243 244 243 235 224 234 241 244 245